Overview Statistics Trail Chart Weather Telemetry Raw packets
 

This is the latest recevied weather packets stored in our database for station/object NR0A-4. If no packets are shown the sender has not sent any weather packets the latest 10 day(s).

<< 84 85 86 87 88 89 90 >>
Time Temp. Humidity Pressure Rain* Wind** Luminosity Snow
1788045004 31.11° C 62% 1007.4 hPa 0 mm - 93 W/m² -
1788044704 31.11° C 61% 1007.6 hPa 0 mm - 308 W/m² -
1788044404 31.11° C 60% 1007.6 hPa 0 mm - 188 W/m² -
1788044104 31.11° C 61% 1007.8 hPa 0 mm - 251 W/m² -
1788043804 31.11° C 61% 1007.7 hPa 0 mm - 341 W/m² -
1788043504 31.11° C 62% 1007.7 hPa 0 mm - 334 W/m² -
1788043205 31.11° C 61% 1007.6 hPa 0 mm - 404 W/m² -
1788042904 31.11° C 62% 1007.7 hPa 0 mm - 357 W/m² -
1788042604 31.11° C 62% 1007.6 hPa 0 mm - 408 W/m² -
1788042304 31.11° C 62% 1007.7 hPa 0 mm - 371 W/m² -
1788042005 31.11° C 61% 1007.7 hPa 0 mm - 211 W/m² -
1788041704 31.11° C 61% 1007.7 hPa 0 mm - 306 W/m² -
1788041404 31.11° C 62% 1007.8 hPa 0 mm - 148 W/m² -
1788041104 31.11° C 61% 1007.7 hPa 0 mm - 578 W/m² -
1788040804 30.56° C 62% 1007.6 hPa 0 mm - 301 W/m² -
1788040505 30.56° C 62% 1007.6 hPa 0 mm - 311 W/m² -
1788040204 30.56° C 62% 1007.6 hPa 0 mm - 352 W/m² -
1788039917 30° C 62% 1007.6 hPa 0 mm - 301 W/m² -
1788039604 30.56° C 61% 1007.7 hPa 0 mm - 257 W/m² -
1788039305 30.56° C 62% 1007.7 hPa 0 mm - 278 W/m² -
1788039004 30.56° C 61% 1007.7 hPa 0 mm - 288 W/m² -
1788038704 30.56° C 61% 1007.7 hPa 0 mm - 264 W/m² -
1788038404 30.56° C 61% 1007.6 hPa 0 mm - 223 W/m² -
1788038104 30.56° C 59% 1007.7 hPa 0 mm - 278 W/m² -
1788037804 31.11° C 60% 1007.7 hPa 0 mm - 251 W/m² -

* Rain latest hour (hover to see other rain measurements)
** Current wind speed in m/s (hover to see current wind gust speed)